THURAYA-2 1 27825U 03026A 21063.55674334 .00000119 00000-0 00000-0 0 9995 2 27825 6.1873 33.6535 0005036 304.7518 68.5198 1.00272184 64998 BLOCK DM-SL R/B 1 27826U 03026B 21063.38646859 -.00000153 00000-0 00000-0 0 9997 2 27826 6.3079 349.8590 6972618 139.6024 12.0679 2.22044647143884